Regional Weather Roundup
Issued by NWS State College, PA

Home | Current Version | Previous Version | Text Only | Print | Product List | Glossary On
Versions: 1 2 3 4 5 6 7 8 9 10 11 12 13 14 15 16 17 18 19 20 21 22 23 24 25 26 27 28 29 30 31 32 33 34 35 36 37 38 39 40 41 42 43 44 45 46 47 48 49 50
000
ASUS41 KCTP 291803
RWRCTP

REGIONAL WEATHER ROUNDUP
NATIONAL WEATHER SERVICE STATE COLLEGE PA
200 PM EDT FRI JUL 29 2016

Note: "fair" indicates few or no clouds below 12,000 feet with no
significant weather and/or obstructions to visibility.

* = STATION THAT DOES NOT REPORT PRECIPITATION /E.G. RAIN...SNOW...ETC/
    THUNDER OR FOG.

PAZ002>004-007>009-013>016-020>023-029>032-291900-
WESTERN PENNSYLVANIA

CITY           SKY/WX    TMP DP  RH WIND       PRES   REMARKS
ERIE           SUNNY     80  70  71 N13       29.95S
MEADVILLE      PTSUNNY   79  64  60 W6        29.96S
FRANKLIN*      CLOUDY    75  64  69 NE8       29.98S
NEW CASTLE     FAIR      81  67  62 W6        29.97S
BEAVER COUNTY  MOSUNNY   82  70  65 SW6       29.98S
BUTLER*        MOSUNNY   82  68  61 SW6       30.00S
PITTSBURGH INT PTSUNNY   78  65  63 CALM      29.97F
PITTSBURGH     MOSUNNY   81  65  58 VRB6      29.97S
INDIANA*       MOSUNNY   81  68  65 CALM      30.00F
LATROBE        PTSUNNY   77  68  73 VRB6      29.98F
WASHINGTON CO* MOSUNNY   81  68  65 W5        29.99S
$$

PAZ004>006-010>012-017>019-024>028-033>037-041-042-045-046-049>053-291900-
CENTRAL PENNSYLVANIA

CITY           SKY/WX    TMP DP  RH WIND       PRES   REMARKS
BRADFORD       CLOUDY    77  61  57 W5        29.99S
DUBOIS         MOSUNNY   79  65  62 MISG      29.97F
CLEARFIELD     MOSUNNY   83  65  54 SW8       29.95F
JOHNSTOWN      MOSUNNY   76  62  62 VRB3      30.01S
ALTOONA        PTSUNNY   80  66  62 N6        29.96F
STATE COLLEGE  MOSUNNY   84  66  54 W7        29.93F
WILLIAMSPORT   MOSUNNY   89  56  32 N8        29.85F
SELINSGROVE    PTSUNNY   86  71  60 CALM      29.88S
FT INDIANTOWN  MOSUNNY   85  67  54 VRB5      29.87S
CAPITAL CITY   PTSUNNY   87  67  51 W3        29.87S
HARRISBURG     PTSUNNY   87  70  56 N8        29.86S
YORK           MOSUNNY   87  69  54 MISG      29.88R
$$

PAZ038>040-043-044-047-048-054-055-060>062-067>071-291900-
EASTERN PENNSYLVANIA

CITY           SKY/WX    TMP DP  RH WIND       PRES   REMARKS
SCRANTON       MOSUNNY   87  65  47 VRB5      29.88F
MOUNT POCONO   MOSUNNY   80  63  55 N13       29.93S
ALLENTOWN      PTSUNNY   85  68  56 VRB6      29.85F
QUAKERTOWN*    PTCLDY    82  68  61 CALM      29.87S
READING        MOSUNNY   85  67  54 N9        29.85S
LANCASTER      MOSUNNY   83  69  62 E7        29.87S
COATESVILLE    PTCLDY    82  70  65 N7        29.89S
POTTSTOWN      PTSUNNY   83  68  60 N6        29.86F
BLUE BELL      PTSUNNY   81  68  65 NE3       29.83F
DOYLESTOWN     PTSUNNY   85  70  60 N9        29.84F
WILLOW GROVE   NOT AVBL
NORTH PHILA    PTSUNNY   84  70  62 NE12      29.84F
PHILADELPHIA   PTSUNNY   86  68  54 N8        29.83F
$$



USA.gov is the U.S. government's official web portal to all federal, state and local government web resources and services.